sat.trackr.live / text

‹ back to catalog

STARLINK-3899

NORAD 52457 · 2022-049G

PAYLOAD ACTIVE UNKNOWN

§ Identity

Operator
Country
US
Launch date
2022-05-06
Launch site
AFETR
Launch vehicle
Mass (kg)
RCS (m²)

Purposes: comms

External: N2YO · Heavens-Above · Gunter

§ Orbital elements

Epoch: 2026-09-20T04:00:03.000096Z

Period
93.79 min
Inclination
53.1606°
Eccentricity
0.0001322
Mean motion
15.35417873 rev/d
Perigee alt
458.8 km
Apogee alt
460.6 km
Semi-major
6,837.8 km
B*
-8.2460e-4
RAAN
271.6471°
Arg perigee
90.0292°
Mean anomaly
4.0305°
Rev number
581

§ Raw data

STARLINK-38991 52457U 22049G   26263.16670139 -.00029050  00000+0 -82460-3 0  99922 52457  53.1606 271.6471 0001322  90.0292   4.0305 15.35417873  5814

JSON: /api/v1/satellites/52457 · /tle

For live sub-satellite position, see the globe view (requires WebGL).

§ Visibility from observer

Set your observer location to see the next 7 days of passes ≥ 10°. The values pass through the URL so the page stays shareable.

No JS? Fill the form by hand. The geolocation button needs JavaScript.